Location: Mount Pleasant
(46.5965°N, 64.0050°W)
Time: 05:58:11
(UTC+00:00)

Meteor 1-5 Rocket - Pass Details

Date: 12 December 2025
Orbit: 787 x 914 km, 81.2° (Epoch: 19 April)

Event Time Altitude Azimuth Distance (km) Brightness Sun altitude
Rises 21:25:57 0° 353° (N) 3,305 7.1 -9.5°
Reaches altitude 10° 21:28:25 10° 359° (N) 2,381 6.3 -9.9°
Maximum altitude 21:33:35 47° 74° (ENE) 1,065 4.3 -10.7°
Drops below altitude 10° 21:38:51 10° 148° (SSE) 2,430 6.5 -11.5°
Sets 21:41:23 0° 154° (SSE) 3,379 7.3 -11.9°
